ボアッティーニ彗星

P/2011 V1 ( Boattini )

English version
Home page
Updated on December 6, 2011

---------------------------------------------------------------------

・ プロフィール

発見日 2011年11月1日
発見光度 19.2等
発見者 A. Boattini (Mount Lemmon)

・ 写真集

・ 軌道要素

Epoch 2011 Apr. 29.0 TT = JDT 2455680.5
T 2011 May 11.86003 TT                                  MPC
q   1.7091926            (2000.0)            P               Q
n   0.13079384     Peri.  259.52138     +0.75445628     +0.64678602
a   3.8436560      Node    60.08018     -0.54048860     +0.70872560
e   0.5553211      Incl.    7.40067     -0.37238125     +0.28173724
P   7.54
From 25 observations 2011 Oct. 22-Nov. 20, mean residual 0".4.

・ 光度変化

        m1 = 15.5 + 5 logΔ + 10.0 log r

---------------------------------------------------------------------

軌道要素はM.P.E.C. 2011-X25に掲載されたものです。
光度グラフはComet for Windowsで作成したものです。

---------------------------------------------------------------------

Copyright(C) Seiichi Yoshida (comet@aerith.net). All rights reserved.